Regional Weather Roundup
Issued by NWS Cleveland, OH

Home | Current Version | Previous Version | Text Only | Print | Product List | Glossary Off
Versions: 1 2 3 4 5 6 7 8 9 10 11 12 13 14 15 16 17 18 19 20 21 22 23 24 25 26 27 28 29 30 31 32 33 34 35 36 37 38 39 40 41 42 43 44 45 46 47 48 49 50

000
ASUS41 KCLE 051102
RWRCLE
OHIO REGIONAL WEATHER ROUNDUP
NATIONAL WEATHER SERVICE CLEVELAND, OH
600 AM EST THU MAR 05 2015

NOTE: "FAIR" INDICATES FEW OR NO CLOUDS BELOW 12,000 FEET WITH NO
SIGNIFICANT WEATHER AND/OR OBSTRUCTIONS TO VISIBILITY.

OHZ001>008-015>018-024>027-034-035-043-044-051200-
   NORTHWEST OHIO

CITY           SKY/WX    TMP DP  RH WIND       PRES   REMARKS
DEFIANCE       MOCLDY    13  -1  54 N6        30.33R WCI   4
FINDLAY        CLOUDY    15   2  56 N10       30.30R WCI   2
TOLEDO EXPRESS MOCLDY    12   0  58 N6        30.32R WCI   3
TOLEDO EXEC    CLOUDY    15   1  53 N8        30.32R WCI   4
LIMA           CLOUDY    16   2  54 N10       30.28R WCI   4
$$

OHZ009>014-019>023-028>033-038-089-051200-
   NORTHEAST OHIO

CITY           SKY/WX    TMP DP  RH WIND       PRES   REMARKS
CLE-HOPKINS    FLURRIES  14   6  70 NE16      30.31R WCI  -2
CLE-LAKEFRONT  CLOUDY    14   5  67 N14       30.30R WCI  -1
CUY CO. ARPT   NOT AVBL
LORAIN-ELYRIA  CLOUDY    13   4  67 NE13      30.29R WCI  -2
ASHTABULA      CLOUDY    11   0  61 N8G17     30.28R WCI  -1
AKRON-CANTON   CLOUDY    15   1  53 N14       30.21R WCI   0
WOOSTER        CLOUDY    14   1  56 N13       30.23R WCI   0
MANSFIELD      CLOUDY    15   4  61 N13       30.23R WCI   1
YOUNGSTOWN     CLOUDY    13   3  64 N10       30.22R WCI   0
$$

OHZ042-051>053-060>062-070>072-077>081-051200-
  SOUTHWEST OHIO

CITY           SKY/WX    TMP DP  RH WIND       PRES   REMARKS
CINC-COVINGTON FLURRIES  19   8  62 N12       30.26S WCI   7
CINC-LUNKEN    CLOUDY    19  11  70 E3        30.31R
HAMILTON       CLOUDY    20   6  55 N9        30.30R WCI   9
DAYTON         CLOUDY    18   6  59 N17       30.27R WCI   3
WRIGHT-PAT AFB CLOUDY    18   4  54 N12       30.27R WCI   6
DAYTON GENERAL CLOUDY    18   6  59 N13       30.25R WCI   5
WILMINGTON     CLOUDY    17   5  59 N12G21    30.24R WCI   4
$$

OHZ036-037-039>041-045>050-054>059-063>069-073>076-082>088-051200-
  CENTRAL AND SOUTHEAST OHIO

CITY           SKY/WX    TMP DP  RH WIND       PRES   REMARKS
COLUMBUS       CLOUDY    18   5  57 N15       30.26R WCI   4
OSU AIRPORT    CLOUDY    17   3  54 N12       30.26R WCI   4
BOLTON FIELD   CLOUDY   N/A N/A N/A N9        30.26R
RICKENBACK AFB NOT AVBL
NEWARK         CLOUDY    19   7  59 N9        30.25R WCI   8
MARION         CLOUDY    15   5  64 N10       30.26R WCI   2
LANCASTER      LGT SNOW  17  13  84 N7        30.25R FOG     WCI   8
ZANESVILLE     LGT SNOW  16  12  84 N7        30.22R FOG     WCI   6
NEW PHILLY     LGT SNOW  19   7  59 N13       30.23R WCI   6
$$



USA.gov is the U.S. government's official web portal to all federal, state and local government web resources and services.